Regional Weather Roundup
Issued by NWS

Home | Current Version | Previous Version | Text Only | Print | Product List | Glossary Off
Versions: 1 2 3 4 5 6 7 8 9 10 11 12 13 14 15 16 17 18 19 20 21 22 23 24 25 26 27 28 29 30 31 32 33 34 35 36 37 38 39 40 41 42 43 44 45 46 47 48 49 50

000
ASUS45 KPSR 220010
RWRAZ

ARIZONA REGIONAL HOURLY WEATHER ROUNDUP
NATIONAL WEATHER SERVICE PHOENIX AZ
500 PM MST THU AUG 21 2014

NOTE: FAIR INDICATES FEW OR NO CLOUDS BELOW 12,000 FEET WITH NO
SIGNIFICANT WEATHER AND/OR OBSTRUCTIONS TO VISIBILITY.

AZZ001>003-036-220100-
NORTHWEST ARIZONA

CITY           SKY/WX    TMP DP  RH WIND       PRES   REMARKS
BULLHEAD CITY  PTSUNNY   91  52  25 N6        29.89S
KINGMAN        PTSUNNY   75  56  51 E14       30.06F
6HR MIN TEMP:  63; 6HR MAX TEMP:  75; 6HR PCP:  0.31;

$$

AZZ004>008-015-016-018-220100-
NORTH CENTRAL ARIZONA

CITY           SKY/WX    TMP DP  RH WIND       PRES   REMARKS
GRAND CANYON   CLOUDY    55  52  89 S8        30.25F
WILLIAMS         N/A     54  52  94 CALM      30.35S
PRESCOTT       PTSUNNY   67  55  65 N16       30.16R
6HR MIN TEMP:  61; 6HR MAX TEMP:  72; 6HR PCP:  0.02;

FLAGSTAFF      RAIN      56  53  90 SW7       30.30R FOG
6HR MIN TEMP:  54; 6HR MAX TEMP:  68; 6HR PCP:  0.25;

PAYSON         CLOUDY    73  55  53 W8        30.17R
PAGE           CLOUDY    84  43  23 W5        30.04F
6HR MIN TEMP:  79; 6HR MAX TEMP:  87;

$$

AZZ009>014-017-220100-
NORTHEAST ARIZONA

CITY           SKY/WX    TMP DP  RH WIND       PRES   REMARKS
WINSLOW        CLOUDY    67  59  75 W8        30.13F
6HR MIN TEMP:  66; 6HR MAX TEMP:  84; 6HR PCP: TRACE;

SAINT JOHNS    LGT RAIN  69  52  54 W15       30.16S
6HR MIN TEMP:  69; 6HR MAX TEMP:  80; 6HR PCP: TRACE;

WINDOW ROCK    LGT RAIN  67  47  48 W12G20    30.24R
6HR MIN TEMP:  67; 6HR MAX TEMP:  79; 6HR PCP: TRACE;

SHOW LOW       CLOUDY    64  50  59 S6        30.26R
$$

AZZ023-220100-
GREATER PHOENIX AREA

CITY           SKY/WX    TMP DP  RH WIND       PRES   REMARKS
PHOENIX        PTSUNNY   88  58  36 E5        29.88S
6HR MIN TEMP:  83; 6HR MAX TEMP:  88; 6HR PCP: TRACE;

BUCKEYE          N/A     86  63  45 E12       29.88S
GLENDALE       PTSUNNY   90  59  35 E3        29.89F
LUKE AFB       NOT AVBL
6HR MIN TEMP:  74; 6HR MAX T  58  37 VRB5      29.89F
6HR MIN TEMP:  78; 6HR MAX TEMP:  87; 6HR PCP:  0.03;

SCOTTSDALE     CLOUDY    87  57  35 S3        29.92S
6HR MIN TEMP:  82; 6HR MAX TEMP:  87; 6HR PCP: TRACE;

MESA-GATEWAY   PTSUNNY   88  52  29 N6        29.93S
CHANDLER       PTSUNNY   88  57  35 VRB5      29.90F
$$

AZZ027-028-220100-
SOUTHWEST MARICOPA COUNTY AND PINAL COUNTY

CITY           SKY/WX    TMP DP  RH WIND       PRES   REMARKS
CASA GRANDE    CLOUDY    88  57  35 CALM      29.92S
6HR MIN TEMP:  81; 6HR MAX TEMP:  88;

GILA BEND      MOCLDY    95  55  26 NE10      29.85S
$$

AZZ503-504-507>509-220100-
SOUTHEAST ARIZONA

CITY           SKY/WX    TMP DP  RH WIND       PRES   REMARKS
TUCSON         CLOUDY    79  63  57 W7        30.02S
6HR MIN TEMP:  75; 6HR MAX TEMP:  86; 6HR PCP:  0.01;

DAVIS-MONTHAN  CLOUDY    79  60  52 NW2       30.01S
6HR MIN TEMP:  78; 6HR MAX TEMP:  83; 6HR PCP: TRACE;

RYAN FIELD       N/A     75  66  73 CALM      30.01F
NOGALES        CLOUDY    78  61  55 CALM      30.07S
6HR MIN TEMP:  72; 6HR MAX TEMP:  80; 6HR PCP:  0.01;

SIERRA VISTA   LGT RAIN  72  61  68 W7        30.14R
                                      6HR PCP: TRACE;

DOUGLAS        CLOUDY    73  62  68 N13       30.08R
6HR MIN TEMP:  72; 6HR MAX TEMP:  86; 6HR PCP: TRACE;

SAFFORD        CLOUDY    83  56  39 NW16      29.98R
6HR MIN TEMP:  82; 6HR MAX TEMP:  90;

$$

AZZ020-021-025-026-031-220100-
SOUTHWEST ARIZONA

CITY           SKY/WX    TMP DP  RH WIND       PRES   REMARKS
YUMA           TSTM      77  63  61 SE7G16    29.97R
6HR MIN TEMP:  74; 6HR MAX TEMP: 104; 6HR PCP:  0.31;

$$

CAZ031-033-041-043-047-048-061-220100-
SOUTHERN CALIFORNIA

CITY           SKY/WX    TMP DP  RH WIND       PRES   REMARKS
DOWNTOWN L.A.  SUNNY     76  62  62 W8        29.89S
6HR MIN TEMP:  76; 6HR MAX TEMP:  80;

L.A. AIRPORT   MOSUNNY   72  62  71 W17       29.90F
6HR MIN TEMP:  72; 6HR MAX TEMP:  75;

SAN DIEGO      MOSUNNY   76  62  62 W13       29.91S
6HR MIN TEMP:  74; 6HR MAX TEMP:  78;

BURBANK        SUNNY     82  59  45 S8        29.88F
6HR MIN TEMP:  76; 6HR MAX TEMP:  84;

ONTARIO        MOSUNNY   90  59  35 W14       29.87S
6HR MIN TEMP:  78; 6HR MAX TEMP:  92;

RIVERSIDE      SUNNY     88  61  40 W15G21    29.86S
6HR MIN TEMP:  76; 6HR MAX TEMP:  92;

PALM SPRINGS   HAZE      92  56  29 SE29G40   29.84R VSB 1
6HR MIN TEMP:  91; 6HR MAX TEMP: 101; 6HR PCP: TRACE;

EL CENTRO NAS  TSTM      73  64  73 NE25      29.85S
6HR MIN TEMP:  70; 6HR MAX TEMP:  99;

IMPERIAL       TSTM      74  62  66 NE21      29.86F
6HR MIN TEMP:  72; 6HR MAX TEMP:  97; 6HR PCP:  1.44;

BLYTHE         RAIN      72  67  84 W23G31    29.94F
6HR MIN TEMP:  71; 6HR MAX TEMP:  99;

NEEDLES        MOSUNNY   95  47  19 E3        29.88S
6HR MIN TEMP:  89; 6HR MAX TEMP:  95;

$$

NVZ020-UTZ003-220100-
SOUTHERN NEVADA-UTAH

CITY           SKY/WX    TMP DP  RH WIND       PRES   REMARKS
LAS VEGAS      CLOUDY    79  51  37 S18G26    29.95F
6HR MIN TEMP:  78; 6HR MAX TEMP:  92;

SALT LAKE CITY PTSUNNY   79  42  26 SE21G28   30.01F
6HR MIN TEMP:  73; 6HR MAX TEMP:  82; 6HR PCP: TRACE;

$$

NMZ009-TXZ055-220100-
NEW MEXICO-WEST TEXAS

CITY           SKY/WX    TMP DP  RH WIND       PRES   REMARKS
ALBUQUERQUE    SUNNY     87  36  16 S8        30.07F
6HR MIN TEMP:  81; 6HR MAX TEMP:  88;

EL PASO        MOSUNNY   91  49  23 S10       29.98F
6HR MIN TEMP:  87; 6HR MAX TEMP:  95;

$$


........................KEY........................
SKY/WX - SKY CONDITION/WEATHER
TMP    - TEMPERATURE IN FAHRENHEIT
DP     - DEW POINT IN FAHRENHEIT
RH     - RELATIVE HUMIDITY IN PERCENT
WIND   - DIRECTION AND SPEED IN MILES PER HOUR (MPH)
VRB    - VARIABLE WIND DIRECTION
PRES   - MEAN SEA LEVEL PRESSURE IN INCHES OF MERCURY
         F - FALLING PRESSURE   R - RISING PRESSURE
         S - STEADY PRESSURE
VSB    - VISIBILITY IN MILES
HX     - HEAT INDEX IN FAHRENHEIT
WCI    - WIND CHILL INDEX IN FAHRENHEIT
TC     - TEMPERATURE IN CELSIUS WHICH IS ALSO KNOWN AS
         TEMPERATURE IN CENTIGRADE
AFB    - AIR FORCE BASE
         LUKE AFB IS LUKE AIR FORCE BASE
         DAVIS-MONTHAN IS DAVIS-MONTHAN AIR FORCE BASE
NAS    - NAVAL AIR STATION
         EL CENTRO NAS IS EL CENTRO NAVAL AIR STATION
N/A    - NOT AVAILABLE


USA.gov is the U.S. government's official web portal to all federal, state and local government web resources and services.